Погода в Ижевске

Хотите узнать прогноз погоды в Ижевске? Тогда Вам сюда: Погода в Ижевске

Поиск расширенной информации на нашем сайте:

Полезная информация:

Новости сайта



02.01.2020
Опубликован Долгосрочный прогноз погоды по городам России и ближнего зарубежья на январь 2020 года.
Карты: Прогноз на январь и февраль 2020 года, Сравнение прогнозируемой аномалии приземной температуры воздуха на январь 2020 года по разным моделям.




Погода в Ижевске - сегодня

Время (UTC), дата Ветер
(°,м/с) 
Видим.   Явления Облачность Т
(°С)
Тd
(°С)
f(%) Тe
(°С)
Pmin
(гПа)
dP
(гПа)
Po
(мм)
O2
(г/м3)
Тmin Tmax R s Состояние
почвы
00 16.01.22 320 (СЗ) 2-3{04}  4000 м  слаб. снег  10/4 600 м средняя 
[Sc|Ac As]
-12.6 -14.7 84 -15  983.3  2.4  722  306           
03 16.01.22 310 (СЗ) 2-3{04}  4000 м  слаб. снег  10/6 600 м средняя 
[Sc|Ac As]
-12.6 -14.6 85 -15  985.3  2.1  724  307  -13.6    54  равномерный
сухой снег
100% 
06 16.01.22 300 (СЗ) 3-4{04}  10 км  {снег}  10/6 1000 м средняя 
[Sc|Ac und]
-13.5 -15.6 84 -17  988  2.5  725  309  -14         
09 16.01.22 300 (СЗ) 2-4{05}  10 км  {снег}  10/3 1000 м 
[Sc]
-12.5 -14.7 84 -15               
12 16.01.22 260 (З) 2-3{04}  10 км  слаб. снег  10/4 1000 м средняя 
[Sc|Ac As]
-12.1 -14.8 80 -14  991.2  2.4  728  308           
15 16.01.22 240 (ЮЗ) 2-3{04}  10 км  {снег}  6/0 средняя 
[Ac trans]
-12.8 -14.8 85 -15  992.9  1.6  729  309    -12  0.5     
18 16.01.22 290 (З) 3-5{06}  10 км  слаб. снег  10/0 средняя 
[As trans]
-9.8 -12.2 83 -13  993.7  -0.9  730  306           
21 16.01.22 280 (З) 3-5{06}  10 км  слаб. снег  10/0 средняя 
[As op]
-8.8 -11.4 81 -12  996.7  3.1  732  306           
00 17.01.22 280 (З) 3-5{07}  10 км  {снег}  10/0 средняя 
[Ac trans]
-8 -11 79 -11  998.5  1.8  734  305           
03 17.01.22 230 (ЮЗ) 3-7{09}  10 км  слаб. снег  10/4 1000 м средняя 
[Sc|Ac As]
-8.3 -11.8 76 -11  999.4  0.9  734  306  -12.9    0.0  56  равномерный
сухой снег
100% 
06 17.01.22 190 (Ю) 3-5{07}  10 км  слаб. снег  10/0 средняя 
[Ac As]
-8.6 -11.4 80 -11  999.5  0.1  734  307           
09 17.01.22 200 (Ю) 4-7{08}  10 км  слаб. снег  10/6 1000 м средняя 
[Sc|Ac As]
-7.6 -10.7 78 -11  999.7  0.2  734  305           
12 17.01.22 200 (Ю) 5-9{09}  10 км  слаб. снег  10/6 600 м средняя 
[Sc|Ac As]
-7.3 -10.1 80 -12  999.3  -0.4  734  305           
15 17.01.22 210 (ЮЗ) 3-8{11}  20000 м  позёмок{снег}  10/6 300 м средняя 
[Sc|As op]
-7.2 -10 80 -10  999.4  0.2  734  305    -7.1  0.3     
18 17.01.22 210 (ЮЗ) 4-9{09}  10 км  {снег}  10/8 300 м средняя 
[Sc|As op]
-7.2 -10 80 -11  1000.9  1.4             
21 17.01.22 190 (Ю) 5-8{10}  10 км  позёмок  10/10 300 м 
[Sc]
-6.9 -10 79 -11  1001.3  0.5  736  305           
00 18.01.22 190 (Ю) 3-7{11}  10 км  позёмок  10/10 600 м 
[Sc]
-6.3 -9.5 78 -9  1002.4  1.1  737  305           
03 18.01.22 180 (Ю) 4-8{09}  10 км  слаб. снег  10/8 300 м средняя 
[Sc|As op]
-5.9 -8.8 80 -9  1002.6  0.2  737  304  -7.7    0.0  54  равномерный
сухой снег
100% 
06 18.01.22 190 (Ю) 4-8{10}  10 км  слаб. снег  10/6 300 м средняя 
[Sc|Ac As]
-5.3 -7.8 83 -9  1003.6  737  304           
09 18.01.22 190 (Ю) 4-9{10}  10 км  слаб. снег  10/6 600 м средняя 
[Sc|As op]
-4.5 -7.2 81 -8  1004.3  0.8  738  303           
12 18.01.22 190 (Ю) 4-10{09}  4000 м  слаб. снег  10/6 600 м средняя 
[Sc|As op]
-4.3 -6.7 83 -7  1005.5  1.2  739  303           
15 18.01.22 200 (Ю) 4-9{08}  10 км  слаб. снег  10/8 300 м средняя 
[Sc|Ac As]
-3.3 -5.6 84 -6  1006.7  1.2  740  302    -3.3     
18 18.01.22 200 (Ю) 5-8{09}  4000 м  слаб. снег  н/о 
-3.4 -5.6 85 -7  1007.4  0.8  740  303           
21 18.01.22 190 (Ю) 4-7{08}  4000 м  слаб. снег  10/8 300 м средняя 
[Sc|Ac As]
-2.3 -4.2 87 -5  1008.3  0.8  741  302           
00 19.01.22 200 (Ю) 4-8{09}  4000 м  слаб. снег  10/8 300 м средняя 
[Sc|Ac As]
-1.5 -3 89 -4  1009.3  1.1  742  301           
Время (UTC), дата Ветер
(°,м/с) 
Видим.   Явления Облачность Т
(°С)
Тd
(°С)
f(%) Тe
(°С)
Pmin
(гПа)
dP
(гПа)
Po
(мм)
O2
(г/м3)
Тmin Tmax R s Состояние
почвы

Для получения пояснительной информации подведите курсор к названию столбца.

ПОГОДА в Ижевске - архив

Всё, что Вы хотите узнать о погоде в Ижевске - удобно и подробно!

Выберите нужную дату (начиная с 1 января 2019* года) и нажмите кнопку "Найти".
Будут отображены архивные сводки погоды по пункту Ижевск, начиная с указанной даты.


Отображать данные в формате CSV (для использования в таблицах Excel)


Внимание! Наш архив погоды предназначен исключительно для личного некоммерческого использования в познавательных целях. Если Вам необходимы официальные справки о состоянии погоды (для производственных, юридических, коммерческих и т.п. целей), обращайтесь в органы Росгидромета.

*Примечание: данная дата относится к архиву по метеостанциям СССР (Россия, СНГ, Балтия).
Архив по метеостанциям Зарубежной Европы и Азии (кроме Китая) хранится 10 дней, по другим регионам земного шара (Китай, Африка, Америка, Австралия, Океания) - 1 день.

Ижевск - район местоположения метеостанции


Название, широта, долгота, высота метеостанции:
Ижевск 56.8°ш. 53.4°д. 159 м над ур. моря [Российская Федерация]

Дополнительная информация

В oтличие oт бoльшинства пoгoдных сайтoв мы публикуем пoдрoбную метеoинфoрмацию в детальнoм прoфессиoнальнoм фoрмате.

Характеристики температуры и влажнoсти вoздуха измеряются на высoте 2 м в тени вдали oт зданий и деревьев.
Скoрoсть ветра измеряется на высoте 10 м (на урoвне рoста челoвека скoрoсть ветра ниже в 1.5-2 раза). Если метеoстанция нахoдится в гoрoде или в лесу, тo скoрoсть ветра занижена на 2-4 м/с пo сравнению с oткрытым местoм. Скoрoсть ветра над акватoриями крупных рек и oзёр, а также на вершинах хoлмoв на 2-5 м/с выше, чем в oбычных услoвиях.
Атмoсфернoе давление в разных тoчках местнoсти мoжет значительнo oтличаться oт давления на метеoстанции, в зависимoсти oт услoвий рельефа (при пoдъёме на 10 м давление пoнижается примернo на 1 мм рт.ст.).